Brookhaven, MS

4:38 AM CST on November 23, 2017 (GMT -0600)
Brookhaven

Weather History for K1R7 - April, 2013

Change the Weather History Date:

Wednesday, April 3, 2013

  Actual Average (KMCB) Record (KMCB)
Temperature  
Mean Temperature 56 °F -  
Max Temperature 64 °F 75 °F 87 °F (1981)
Min Temperature 48 °F 52 °F 30 °F (1987)
Degree Days  
Heating Degree Days 9    
Growing Degree Days 6 (Base 50)    
Moisture  
Dew Point 49 °F    
Average Humidity 91    
Maximum Humidity 100    
Minimum Humidity 59    
Precipitation  
Precipitation 2.39 in - - ()
Sea Level Pressure  
Sea Level Pressure 30.01 in    
Wind  
Wind Speed 5 mph (NNE)    
Max Wind Speed 14 mph    
Max Gust Speed 20 mph    
Visibility 4 miles    
Events Rain , Thunderstorm    
Averages and records for this station are not official NWS values.
T = Trace of Precipitation, MM = Missing Value Source: NWS Daily Summary

Daily Weather History Graph

Daily Weather History Graph

Search for Another Location

Airport or City:

Trip Planner

Search our weather history database for the weather conditions in past years. The results will help you decide how hot, cold, wet, or windy it might be!

Date:

Astronomy

Apr. 03, 2013 Rise Set
Actual Time 6:47 AM CDT 7:22 PM CDT
Civil Twilight 6:22 AM CDT 7:47 PM CDT
Nautical Twilight 5:54 AM CDT 8:16 PM CDT
Astronomical Twilight 5:24 AM CDT 8:45 PM CDT
Moon 2:04 AM CDT (4/3) 12:57 PM CDT (4/3)
Length of Visible Light 13h 24m
Length of Day
12h 35m
Last Quarter, 44% of the Moon is Illuminated
Apr 3
Last Quarter
Apr 10
New
Apr 18
First Quarter
Apr 25
Full
May 2
Last Quarter

Hourly Weather History & Observations

Time (CDT) Temp. Dew Point Humidity Pressure Visibility Wind Dir Wind Speed Gust Speed Precip Events Conditions
12:15 AM 64.4 °F 53.6 °F 68% 30.03 in 10.0 mi Calm Calm - N/A   Overcast
12:35 AM 64.4 °F 53.6 °F 68% 30.01 in 10.0 mi NE 4.6 mph - N/A   Mostly Cloudy
12:55 AM 64.4 °F 51.8 °F 64% 30.00 in 10.0 mi ENE 8.1 mph - N/A   Partly Cloudy
1:15 AM 62.6 °F 50.0 °F 63% 30.00 in 10.0 mi Calm Calm - N/A   Scattered Clouds
1:35 AM 62.6 °F 48.2 °F 59% 30.00 in 10.0 mi Calm Calm - N/A   Mostly Cloudy
1:55 AM 62.6 °F 48.2 °F 59% 29.99 in 10.0 mi Calm Calm - N/A   Overcast
2:15 AM 62.6 °F 48.2 °F 59% 29.98 in 10.0 mi Calm Calm - N/A   Mostly Cloudy
2:35 AM 62.6 °F 48.2 °F 59% 29.98 in 10.0 mi NNE 4.6 mph - N/A   Partly Cloudy
2:55 AM 60.8 °F 46.4 °F 59% 29.99 in 10.0 mi NE 4.6 mph - N/A   Light Drizzle
3:15 AM 60.8 °F 46.4 °F 59% 29.99 in 10.0 mi NNE 5.8 mph - N/A   Mostly Cloudy
3:35 AM 60.8 °F 48.2 °F 63% 30.00 in 10.0 mi Calm Calm - N/A Rain Light Rain
3:55 AM 57.2 °F 48.2 °F 72% 30.01 in 10.0 mi NNE 4.6 mph - N/A   Light Drizzle
4:15 AM 55.4 °F 48.2 °F 77% 30.01 in 9.0 mi NNE 8.1 mph - N/A Rain Light Rain
4:35 AM 53.6 °F 48.2 °F 82% 30.01 in 6.0 mi NNE 5.8 mph - 0.02 in Rain Light Rain
4:55 AM 53.6 °F 48.2 °F 82% 30.01 in 5.0 mi NNE 6.9 mph - 0.04 in Rain Rain
5:15 AM 51.8 °F 50.0 °F 94% 30.01 in 3.0 mi NNE 8.1 mph - 0.04 in Rain Rain
5:35 AM 51.8 °F 48.2 °F 88% 30.03 in 3.0 mi NNE 8.1 mph - 0.12 in Rain Rain
5:55 AM 50.0 °F 48.2 °F 94% 30.03 in 1.8 mi NNE 6.9 mph - 0.24 in Rain Heavy Rain
6:15 AM 50.0 °F 48.2 °F 94% 30.03 in 2.0 mi NNE 6.9 mph - 0.08 in Rain Heavy Rain
6:35 AM 50.0 °F 48.2 °F 94% 30.03 in 3.0 mi NNE 5.8 mph - 0.15 in Rain Rain
6:55 AM 50.0 °F 48.2 °F 94% 30.04 in 2.5 mi North 4.6 mph - 0.21 in Rain Heavy Rain
7:15 AM 48.2 °F 48.2 °F 100% 30.05 in 3.0 mi NE 4.6 mph - 0.04 in Rain Rain
7:35 AM 48.2 °F 48.2 °F 100% 30.04 in 1.5 mi NNE 8.1 mph - 0.13 in Rain Light Rain
7:55 AM 48.2 °F 48.2 °F 100% 30.03 in 2.5 mi NE 9.2 mph - 0.17 in Rain , Thunderstorm Rain
8:15 AM 48.2 °F 48.2 °F 100% 30.03 in 2.5 mi NE 9.2 mph - 0.03 in Rain Rain
8:35 AM 48.2 °F 48.2 °F 100% 30.04 in 1.8 mi NE 8.1 mph 17.3 mph 0.08 in Rain Rain
8:55 AM 48.2 °F 46.4 °F 93% 30.03 in 1.5 mi NE 6.9 mph - 0.17 in Rain Rain
9:15 AM 48.2 °F 46.4 °F 93% 30.01 in 1.8 mi NE 4.6 mph - 0.03 in Rain Rain
9:35 AM 48.2 °F 46.4 °F 93% 29.99 in 1.2 mi NE 6.9 mph - 0.09 in Rain Rain
9:55 AM 48.2 °F 48.2 °F 100% 29.97 in 2.5 mi NE 11.5 mph 17.3 mph 0.11 in Rain Light Rain
10:15 AM 48.2 °F 48.2 °F 100% 29.94 in 5.0 mi NE 10.4 mph 17.3 mph N/A   Overcast
10:35 AM 48.2 °F 48.2 °F 100% 29.96 in 8.0 mi East 9.2 mph 18.4 mph N/A   Overcast
10:55 AM 48.2 °F 48.2 °F 100% 30.01 in 9.0 mi ENE 4.6 mph - N/A   Overcast
11:15 AM 48.2 °F 48.2 °F 100% 30.01 in 10.0 mi NNE 4.6 mph - N/A   Overcast
11:35 AM 50.0 °F 48.2 °F 94% 30.03 in 9.0 mi NE 4.6 mph - N/A   Overcast
11:55 AM 50.0 °F 48.2 °F 94% 30.02 in 3.0 mi NE 5.8 mph - N/A Rain Light Rain
12:15 PM 50.0 °F 50.0 °F 100% 30.01 in 3.0 mi NNE 5.8 mph - N/A   Light Drizzle
12:35 PM 50.0 °F 50.0 °F 100% 30.01 in 3.0 mi NNE 4.6 mph - N/A   Light Drizzle
12:55 PM 50.0 °F 50.0 °F 100% 30.01 in 2.0 mi NNE 6.9 mph - N/A   Drizzle
1:15 PM 51.8 °F 50.0 °F 94% 30.01 in 1.2 mi NNE 6.9 mph - N/A Rain Light Rain
1:35 PM 51.8 °F 51.8 °F 100% 30.00 in 0.5 mi North 8.1 mph - 0.08 in Rain Rain
1:55 PM 51.8 °F 51.8 °F 100% 30.00 in 0.8 mi North 8.1 mph - 0.15 in Rain Rain
2:15 PM 51.8 °F 50.0 °F 94% 29.99 in 0.8 mi North 10.4 mph - 0.09 in Rain Heavy Rain
2:35 PM 51.8 °F 50.0 °F 94% 29.98 in 0.8 mi NNE 10.4 mph 17.3 mph 0.25 in Rain Heavy Rain
2:55 PM 50.0 °F 50.0 °F 100% 29.98 in 0.5 mi North 9.2 mph - 0.54 in Rain Heavy Rain
3:15 PM 51.8 °F 50.0 °F 94% 29.98 in 0.8 mi North 11.5 mph - 0.18 in Rain Heavy Rain
3:35 PM 51.8 °F 50.0 °F 94% 29.97 in 0.5 mi NNE 10.4 mph - 0.37 in Rain Heavy Rain
3:55 PM 51.8 °F 50.0 °F 94% 29.97 in 0.8 mi North 13.8 mph 17.3 mph 0.49 in Rain Rain
4:15 PM 51.8 °F 50.0 °F 94% 29.97 in 0.5 mi NNE 9.2 mph 18.4 mph 0.05 in Rain Rain
4:35 PM 50.0 °F 50.0 °F 100% 29.97 in 0.8 mi NNE 9.2 mph 16.1 mph 0.08 in Rain Rain
4:55 PM 50.0 °F 50.0 °F 100% 29.97 in 0.5 mi NNE 11.5 mph 19.6 mph 0.12 in Rain Rain
5:15 PM 48.2 °F 48.2 °F 100% 29.97 in 0.5 mi NNE 6.9 mph 16.1 mph 0.02 in Rain Light Rain
5:35 PM 48.2 °F 48.2 °F 100% 29.97 in 0.5 mi NNE 6.9 mph - 0.06 in Rain Light Rain
5:55 PM 48.2 °F 48.2 °F 100% 29.97 in 0.5 mi NE 9.2 mph - 0.10 in Rain Rain
6:15 PM 48.2 °F 48.2 °F 100% 29.98 in 1.0 mi NNE 5.8 mph - 0.01 in Rain Light Rain
6:35 PM 48.2 °F 48.2 °F 100% 29.98 in 1.0 mi NNE 8.1 mph - 0.02 in Rain Light Rain
6:55 PM 48.2 °F 48.2 °F 100% 29.99 in 0.8 mi NE 9.2 mph - 0.04 in   Overcast
7:15 PM 48.2 °F 48.2 °F 100% 29.99 in 1.2 mi NNE 6.9 mph 16.1 mph N/A Rain Light Rain
7:35 PM 48.2 °F 48.2 °F 100% 30.00 in 2.5 mi NNE 6.9 mph - N/A   Overcast
7:55 PM 48.2 °F 48.2 °F 100% 30.01 in 3.0 mi NNE 4.6 mph - N/A   Light Drizzle
8:15 PM 48.2 °F 48.2 °F 100% 30.01 in 2.5 mi NE 8.1 mph - N/A Rain Light Rain
8:35 PM 48.2 °F 48.2 °F 100% 30.02 in 2.0 mi NNE 5.8 mph - N/A   Drizzle
8:55 PM 48.2 °F 48.2 °F 100% 30.03 in 1.8 mi NNE 6.9 mph - 0.01 in Rain Light Rain
9:15 PM 48.2 °F 48.2 °F 100% 30.04 in 1.5 mi NNE 5.8 mph - N/A   Drizzle
9:35 PM 48.2 °F 48.2 °F 100% 30.05 in 1.8 mi North 8.1 mph - N/A   Light Drizzle
9:55 PM 48.2 °F 48.2 °F 100% 30.05 in 2.5 mi NNE 4.6 mph - N/A   Mostly Cloudy
10:15 PM 48.2 °F 48.2 °F 100% 30.06 in 3.0 mi NNE 4.6 mph - N/A   Mostly Cloudy
10:35 PM 48.2 °F 48.2 °F 100% 30.06 in 3.0 mi NNE 4.6 mph - N/A   Mostly Cloudy
10:55 PM 48.2 °F 48.2 °F 100% 30.05 in 2.5 mi NNE 5.8 mph - N/A   Overcast
11:15 PM 48.2 °F 48.2 °F 100% 30.05 in 3.0 mi NNE 4.6 mph - N/A   Overcast
11:35 PM 48.2 °F 48.2 °F 100% 30.05 in 2.5 mi NNE 4.6 mph - N/A   Light Drizzle
11:55 PM 48.2 °F 46.4 °F 93% 30.05 in 1.8 mi NNE 4.6 mph - N/A Rain Light Rain